This is the latest recevied weather packets stored in our database for station/object N8BAP. If no packets are shown the sender has not sent any weather packets the latest 1 day(s).
| Time | Temp. | Humidity | Pressure | Rain* | Wind** | Luminosity | Snow |
|---|---|---|---|---|---|---|---|
| 1777989500 | 18.33° C | 66% | 1013.5 hPa | 0 mm | 2.68 m/s, 202° | 242 W/m² | - |
| 1777989196 | 18.33° C | 66% | 1013.8 hPa | 0 mm | 3.13 m/s, 205° | 233 W/m² | - |
| 1777988893 | 17.78° C | 67% | 1013.8 hPa | 0 mm | 3.58 m/s, 242° | 229 W/m² | - |
| 1777988590 | 17.78° C | 67% | 1014 hPa | 0 mm | 4.02 m/s, 233° | 196 W/m² | - |
| 1777988286 | 17.78° C | 68% | 1013.5 hPa | 0 mm | 2.24 m/s, 238° | 170 W/m² | - |
| 1777987983 | 17.78° C | 69% | 1013.7 hPa | 0 mm | 1.79 m/s, 240° | 180 W/m² | - |
| 1777987678 | 17.78° C | 69% | 1013.8 hPa | 0 mm | 1.79 m/s, 226° | 158 W/m² | - |
| 1777987376 | 17.22° C | 70% | 1013.8 hPa | 0 mm | 3.58 m/s, 243° | 164 W/m² | - |
| 1777987073 | 17.22° C | 70% | 1013.9 hPa | 0 mm | 3.13 m/s, 217° | 176 W/m² | - |
| 1777986770 | 17.22° C | 71% | 1013.9 hPa | 0 mm | 4.92 m/s, 225° | 190 W/m² | - |
| 1777986468 | 16.67° C | 72% | 1014 hPa | 0 mm | 4.47 m/s, 225° | 223 W/m² | - |
| 1777986166 | 16.67° C | 74% | 1013.9 hPa | 0 mm | 3.13 m/s, 231° | 193 W/m² | - |
| 1777985863 | 16.67° C | 76% | 1013.8 hPa | 0 mm | 1.79 m/s, 268° | 212 W/m² | - |
| 1777985560 | 16.67° C | 77% | 1014.1 hPa | 0 mm | 3.13 m/s, 246° | 231 W/m² | - |
| 1777985257 | 16.11° C | 79% | 1014.1 hPa | 0 mm | 2.68 m/s, 233° | 269 W/m² | - |
| 1777984954 | 15.56° C | 81% | 1014.1 hPa | 0 mm | 4.02 m/s, 229° | 247 W/m² | - |
| 1777984649 | 15.56° C | 82% | 1014.1 hPa | 0 mm | 2.68 m/s, 211° | 150 W/m² | - |
| 1777984346 | 15° C | 84% | 1014 hPa | 0 mm | 3.13 m/s, 216° | 115 W/m² | - |
| 1777984042 | 15° C | 84% | 1013.8 hPa | 0 mm | 3.13 m/s, 222° | 100 W/m² | - |
| 1777983739 | 15° C | 84% | 1014.1 hPa | 0 mm | 2.68 m/s, 207° | 80 W/m² | - |
| 1777983431 | 15° C | 84% | 1014.2 hPa | 0 mm | 3.13 m/s, 238° | 48 W/m² | - |
| 1777983127 | 15° C | 83% | 1014.2 hPa | 0 mm | 2.68 m/s, 245° | 48 W/m² | - |
| 1777982824 | 15° C | 82% | 1014.1 hPa | 0 mm | 2.24 m/s, 252° | 37 W/m² | - |
| 1777982519 | 15° C | 82% | 1014.1 hPa | 0 mm | 2.24 m/s, 223° | 30 W/m² | - |
| 1777982213 | 15.56° C | 80% | 1014.1 hPa | 0 mm | 2.24 m/s, 268° | 27 W/m² | - |
* Rain latest hour (hover to see other rain measurements)
** Current wind speed in m/s (hover to see current wind gust speed)